Find Starlink 2358

NORAD ID: 47898 Int'l Des: 2021-021 Owner: SPXS Country: US Constellation: starlink operational
LEOCIRCULAR

Current View

Loading 3D Globe...

About Starlink 2358

Description loading...

Upcoming Passes

Passes for default location (London). Set your location on the main map for personalized predictions.

Altitude History

Loading altitude history...

Two-Line Element Set

1 47898U 21021AQ 26150.46697735 .00007292 00000-0 24633-3 0 9994
2 47898 53.1597 247.7168 0001346 82.1066 278.0088 15.31725306288723
Epoch: May 30, 2026 • Age: 11 hours

Current Status

Altitude 475.6 km
Velocity 7.63 km/s
Sub-Earth Point 49.81°N, 135.59°E
Launch Date Mar 14, 2021
Age 5.2 years
Type internet

Technical Details

Classification Payload
Mass 260.00 kg
Dry Mass 248.00 kg
Total Mass 260.00 kg
Length 0.20 m
Diameter 2.80 m
Span 9.00 m
Shape Box + pan
Manufacturer SPXS
Bus Type Starlink
Phase Status In Orbit
Owner/State SPXS/US

Most Searched